CAPE
1120 1826 2305 2506 2205 2255 2201 2067 2037 1923 1765 1709 1265 1032 845 1010 866 868 576 624 771 821 549 511 514 258 97 38 16 0 3 9 18 18 42 150 277 109 224 126 65 0 4
1267 1860 2326 2450 2172 2275 2110 2038 1926 1581 1487 1495 1379 785 932 1161 896 719 640 798 503 813 613 377 250 60 41 31 20 18 5 0 23 21 9 23 58 102 84 279 52 31 255
1537 1818 2088 2247 2094 2182 2112 1896 1495 1331 1257 1247 1155 908 993 1123 941 761 908 790 688 666 491 270 121 52 37 39 126 65 37 24 35 19 0 1 2 41 31 327 421 312 324
1591 1673 1832 2136 2056 2045 1969 1590 1291 1040 1072 1085 1010 1109 1343 1018 782 733 971 812 714 656 420 234 64 90 71 76 78 109 70 49 66 53 3 35 80 24 1 44 90 212 285
1450 1510 1759 2042 2066 1950 1702 1393 1213 990 862 1124 1262 1230 1589 883 724 582 532 619 739 772 516 260 173 179 142 97 80 67 30 29 32 24 27 33 76 206 41 7 32 240 281
1366 1444 1760 1948 1999 1823 1558 1329 1177 1416 1182 1201 999 924 1058 1061 408 388 482 754 674 487 371 154 125 69 87 73 72 31 14 20 34 23 32 33 37 243 208 170 211 285 353
1379 1515 1653 1887 1960 1775 1535 1324 1300 1361 1406 1108 872 791 642 464 298 274 483 629 655 491 274 105 39 32 82 63 60 36 14 2 5 6 13 14 29 117 66 298 311 201 94
1406 1501 1552 1587 1622 1598 1543 1431 1143 1250 1150 863 850 696 560 287 289 287 520 510 471 447 253 71 54 63 81 63 42 19 3 1 2 2 12 13 75 43 149 188 272 167 60
1389 1420 1398 1343 1362 1335 1268 1012 1026 1037 706 595 517 500 371 317 416 311 444 394 365 245 149 89 73 76 67 58 34 19 1 3 7 11 8 12 80 42 115 140 191 114 62
1342 1323 1241 1175 1222 1135 711 602 425 542 454 356 211 154 113 170 208 316 194 186 204 126 68 69 78 71 53 47 34 11 0 0 4 16 10 12 72 72 73 69 146 104 64
1096 1164 1086 1049 1019 679 394 478 354 176 116 66 38 55 74 101 64 42 60 68 64 47 57 63 66 54 25 23 19 4 0 0 5 20 12 39 66 64 63 65 65 91 76
797 827 962 928 701 460 346 291 202 21 4 2 0 0 9 13 24 52 36 53 73 55 58 63 53 25 0 1 0 0 0 0 0 3 4 26 33 51 68 55 56 77 82
684 585 803 749 552 325 237 170 90 0 0 0 0 0 13 33 20 10 7 12 10 20 24 14 6 0 0 0 0 0 0 0 8 20 45 48 21 23 46 54 55 62 72
605 489 627 625 453 227 72 115 39 0 0 0 3 6 20 11 7 2 0 0 0 0 0 0 0 0 0 1 0 0 0 0 0 21 34 51 44 17 13 28 41 36 48
662 439 420 562 393 206 32 35 38 0 0 0 0 0 4 3 1 1 0 0 0 0 0 0 0 0 0 0 0 0 0 0 0 6 14 21 46 47 31 22 22 20 35
619 406 337 446 361 163 21 1 25 0 0 0 0 0 0 0 1 0 0 0 0 0 1 0 0 0 0 0 0 0 0 0 4 4 3 9 31 39 25 14 14 11 9
668 499 316 293 282 122 27 0 4 0 0 3 0 0 0 0 0 0 0 0 0 3 1 0 0 0 0 0 0 0 0 3 0 0 0 0 0 15 42 24 19 19 14
789 548 435 410 260 106 0 0 0 0 0 0 0 0 0 0 0 4 1 0 0 0 0 0 0 0 0 0 0 0 0 0 0 0 0 0 0 0 10 19 0 0 3
882 638 590 487 259 194 34 7 0 0 0 0 0 0 0 0 0 2 0 0 0 0 0 0 0 0 0 0 0 0 0 0 0 0 0 0 0 0 0 0 0 0 0
900 864 773 578 404 295 122 26 0 0 0 0 0 0 0 0 0 0 0 0 0 0 0 0 0 0 0 0 0 0 0 0 0 0 0 0 0 0 0 0 0 0 0
885 784 874 706 559 345 186 41 5 0 0 0 0 0 0 0 0 0 0 0 0 0 0 0 0 0 0 0 0 0 0 0 0 0 0 0 0 0 0 0 0 0 0
755 689 885 776 673 428 270 140 131 26 0 0 0 0 0 0 0 0 0 0 0 0 0 0 0 0 0 0 0 0 0 0 0 0 0 0 0 0 0 0 0 0 0
484 588 754 843 728 449 390 206 185 48 10 0 0 0 0 0 0 0 0 0 0 0 0 0 0 0 0 0 0 0 0 0 0 0 0 0 0 0 0 0 0 0 0
402 364 509 854 798 587 459 277 296 74 4 47 9 0 0 0 0 0 0 0 0 0 0 0 0 0 0 0 0 0 0 0 0 0 0 0 0 0 0 0 0 0 0
376 384 383 663 697 813 564 409 532 610 101 65 55 0 0 0 0 0 0 0 0 0 0 0 0 0 0 0 0 0 0 0 0 0 0 0 0 0 0 0 0 0 0
337 406 431 480 561 598 598 551 411 455 145 66 76 27 0 0 0 0 0 0 0 0 0 0 0 0 0 0 0 0 0 0 0 0 0 0 0 0 0 0 0 0 0
CIN
-90 -1 -0 -0 -0 -0 -0 -0 -0 -0 -0 -0 -0 -0 -0 -0 -0 -3 -22 -23 -2 -0 -29 -38 -57 -138 -241 -0 -3 -0 -3 -5 -12 -16 -10 -169 -143 -222 -153 -170 -178 -0 -0
-87 -0 -0 -0 -0 -0 -0 -0 -0 -1 -0 -0 -0 -0 -0 -0 -0 -7 -18 -1 -18 -0 -23 -74 -134 -9 -3 -0 -0 -0 -0 -0 -6 -13 -25 -14 -3 -229 -212 -115 -203 -67 -94
-46 -0 -0 -0 -0 -0 -0 -0 -1 -1 -0 -0 -0 -0 -0 -0 -0 -0 -0 -0 -1 -4 -32 -113 -208 -12 -4 -35 -229 -45 -29 -1 -3 -6 -0 -0 -0 -0 -0 -91 -71 -97 -88
-59 -5 -0 -0 -0 -0 -0 -0 -2 -0 -0 -0 -0 -0 -0 -0 -0 -0 -0 -0 -0 -5 -47 -136 -304 -116 -167 -174 -180 -257 -1 -2 -5 -12 -1 -1 -231 -1 -0 -234 -203 -119 -96
-57 -16 -0 -0 -0 -0 -0 -0 -0 -0 -0 -0 -0 -0 -0 -0 -8 -6 -15 -4 -2 -1 -26 -109 -175 -176 -205 -248 -1 -2 -10 -21 -20 -15 -3 -2 -243 -145 -67 -0 -109 -116 -101
-65 -18 -0 -0 -0 -0 -0 -0 -0 -0 -0 -0 -0 -1 -0 -0 -54 -51 -41 -4 -13 -31 -71 -158 -199 -4 -2 -3 -1 -7 -25 -16 -19 -0 -0 -14 -2 -125 -162 -172 -139 -108 -100
-75 -17 -0 -0 -0 -0 -0 -0 -0 -0 -0 -0 -0 -17 -27 -56 -84 -94 -55 -30 -34 -59 -118 -180 -8 -11 -2 -4 -7 -13 -33 -0 -0 -3 -8 -7 -4 -228 -226 -107 -105 -139 -183
-85 -33 -5 -0 -0 -0 -0 -0 -0 -0 -0 -1 -1 -31 -39 -103 -112 -111 -65 -63 -75 -89 -154 -2 -8 -8 -5 -1 -8 -18 -21 -0 -0 -3 -21 -4 -2 -0 -200 -159 -130 -171 -53
-63 -42 -21 -2 -0 -0 -1 -0 -0 -0 -0 -10 -28 -54 -74 -99 -94 -123 -94 -100 -106 -145 -196 -3 -10 -8 -1 -2 -11 -23 -24 -54 -23 -38 -25 -8 -1 -0 -243 -212 -168 -228 -0
-59 -42 -35 -20 -6 -0 -8 -3 -6 -4 -9 -40 -93 -150 -192 -165 -179 -139 -190 -184 -165 -202 -175 -10 -13 -19 -6 -11 -13 -22 -0 -0 -20 -22 -17 -10 -1 -0 -0 -0 -216 -241 -0
-73 -52 -38 -39 -25 -31 -55 -19 -24 -71 -130 -209 -254 -252 -266 -256 -300 -347 -336 -323 -184 -5 -10 -18 -21 -35 -54 -29 -22 -34 -0 -0 -13 -22 -11 -5 -0 -0 -0 -0 -0 -257 -0
-140 -107 -67 -54 -68 -73 -73 -84 -93 -267 -139 -155 -0 -0 -146 -10 -22 -144 -17 -16 -141 -16 -26 -37 -36 -58 -0 -2 -0 -0 -0 -0 -0 -9 -2 -5 -4 -0 -0 -0 -0 -0 -0
-168 -148 -89 -83 -99 -117 -127 -151 -181 -0 -0 -0 -0 -0 -18 -37 -33 -38 -6 -50 -45 -47 -46 -60 -67 -0 -0 -0 -0 -0 -0 -0 -13 -8 -10 -3 -1 -1 -2 -1 -0 -0 -0
-139 -168 -115 -98 -123 -160 -217 -189 -234 -0 -0 -0 -6 -21 -23 -25 -13 -0 -45 -0 -0 -0 -0 -0 -0 -0 -0 -6 -0 -0 -0 -0 -0 -3 -4 -8 -0 -0 -0 -2 -0 -0 -0
-90 -135 -139 -108 -123 -160 -280 -253 -242 -0 -0 -0 -0 -0 -0 -0 -0 -28 -0 -0 -0 -0 -0 -0 -0 -0 -0 -0 -0 -0 -0 -0 -0 -31 -29 -30 -5 -0 -0 -1 -0 -1 -0
-72 -122 -138 -122 -118 -162 -284 -122 -223 -0 -0 -0 -0 -0 -0 -0 -10 -4 -0 -0 -0 -0 -0 -0 -0 -0 -0 -0 -0 -0 -0 -0 -15 -31 -21 -21 -17 -2 -0 -0 -0 -0 -0
-62 -92 -132 -147 -119 -174 -257 -0 -237 -0 -0 -0 -0 -0 -0 -0 -0 -0 -0 -0 -0 -1 -0 -0 -0 -0 -0 -0 -0 -0 -0 -27 -0 -0 -0 -0 -3 -28 -1 -1 -0 -0 -0
-22 -36 -64 -80 -94 -147 -0 -0 -0 -0 -0 -0 -0 -0 -0 -0 -0 -0 -0 -0 -0 -0 -0 -0 -0 -0 -0 -0 -0 -0 -0 -0 -0 -0 -0 -0 -0 -0 -13 -7 -0 -0 -0
-9 -21 -18 -38 -84 -103 -183 -116 -0 -0 -0 -0 -0 -0 -0 -0 -0 -0 -0 -0 -0 -0 -0 -0 -0 -0 -0 -0 -0 -0 -0 -0 -0 -0 -0 -0 -0 -0 -0 -0 -0 -0 -0
-16 -4 -1 -13 -33 -42 -93 -133 -0 -0 -0 -0 -0 -0 -0 -0 -0 -0 -0 -0 -0 -0 -0 -0 -0 -0 -0 -0 -0 -0 -0 -0 -0 -0 -0 -0 -0 -0 -0 -0 -0 -0 -0
-19 -27 -0 -1 -5 -23 -54 -112 -49 -0 -0 -0 -0 -0 -0 -0 -0 -0 -0 -0 -0 -0 -0 -0 -0 -0 -0 -0 -0 -0 -0 -0 -0 -0 -0 -0 -0 -0 -0 -0 -0 -0 -0
-16 -25 -3 -1 -2 -22 -53 -97 -90 -138 -0 -0 -0 -0 -0 -0 -0 -0 -0 -0 -0 -0 -0 -0 -0 -0 -0 -0 -0 -0 -0 -0 -0 -0 -0 -0 -0 -0 -0 -0 -0 -0 -0
-1 -6 -15 -0 -0 -8 -31 -56 -45 -65 -57 -0 -0 -0 -0 -0 -0 -0 -0 -0 -0 -0 -0 -0 -0 -0 -0 -0 -0 -0 -0 -0 -0 -0 -0 -0 -0 -0 -0 -0 -0 -0 -0
-9 -0 -0 -0 -0 -0 -12 -36 -31 -67 -121 -114 -120 -0 -0 -0 -0 -0 -0 -0 -0 -0 -0 -0 -0 -0 -0 -0 -0 -0 -0 -0 -0 -0 -0 -0 -0 -0 -0 -0 -0 -0 -0
-3 -1 -0 -0 -0 -0 -5 -24 -8 -7 -95 -101 -65 -0 -0 -0 -0 -0 -0 -0 -0 -0 -0 -0 -0 -0 -0 -0 -0 -0 -0 -0 -0 -0 -0 -0 -0 -0 -0 -0 -0 -0 -0
-0 -1 -0 -0 -0 -0 -0 -0 -8 -18 -66 -104 -51 -44 -0 -0 -0 -0 -0 -0 -0 -0 -0 -0 -0 -0 -0 -0 -0 -0 -0 -0 -0 -0 -0 -0 -0 -0 -0 -0 -0 -0 -0
Wind_Speed
13 12 15 21 20 23 25 24 23 24 22 21 20 21 19 15 10 10 9 8 11 11 12 13 19 24 nan nan nan nan nan nan nan nan nan 5 7 7 5 8 nan nan nan
12 9 16 21 20 21 24 24 22 24 21 20 19 21 19 18 12 11 11 13 12 10 13 16 19 nan nan nan nan nan nan nan nan nan nan nan nan 5 nan 6 nan nan 7
15 12 17 20 22 23 28 25 27 27 23 21 19 20 19 20 20 18 16 17 14 16 15 17 19 nan nan nan 17 nan nan nan nan nan nan nan nan nan nan 5 5 6 5
17 13 17 21 27 27 30 29 31 25 22 21 19 18 19 20 19 19 17 16 16 17 16 17 nan nan nan nan nan 15 nan nan nan nan nan nan nan nan nan nan nan 4 6
15 13 16 23 25 27 29 30 30 24 24 21 22 19 20 21 20 20 17 15 16 16 15 15 16 16 17 nan nan nan nan nan nan nan nan nan nan 4 nan nan nan 5 8
15 13 19 24 25 26 26 27 28 28 26 25 26 22 22 22 20 19 16 14 14 15 16 16 16 nan nan nan nan nan nan nan nan nan nan nan nan 5 6 5 5 10 11
22 13 18 24 23 25 26 25 27 31 29 27 27 26 26 24 21 17 16 14 12 14 13 15 nan nan nan nan nan nan nan nan nan nan nan nan nan 6 nan 5 10 14 nan
24 20 18 21 24 24 27 25 24 29 31 30 29 28 28 25 21 19 17 14 11 12 15 nan nan nan nan nan nan nan nan nan nan nan nan nan nan nan 10 9 13 17 nan
23 25 21 19 21 23 25 24 25 26 30 31 31 31 28 25 23 20 18 16 14 13 11 nan nan nan nan nan nan nan nan nan nan nan nan nan nan nan 12 11 13 18 nan
22 23 29 21 19 21 20 22 25 27 30 31 32 32 29 27 25 24 22 19 19 15 nan nan nan nan nan nan nan nan nan nan nan nan nan nan nan nan nan nan 15 17 nan
27 23 25 29 20 19 19 20 25 30 33 nan nan nan nan 28 nan nan nan nan nan nan nan nan nan nan nan nan nan nan nan nan nan nan nan nan nan nan nan nan nan nan nan
31 26 23 25 26 21 20 19 19 nan nan nan nan nan nan nan nan nan nan nan nan nan nan nan nan nan nan nan nan nan nan nan nan nan nan nan nan nan nan nan nan nan nan
39 34 30 26 26 22 20 19 nan nan nan nan nan nan nan nan nan nan nan nan nan nan nan nan nan nan nan nan nan nan nan nan nan nan nan nan nan nan nan nan nan nan nan
39 37 35 33 27 26 nan 22 nan nan nan nan nan nan nan nan nan nan nan nan nan nan nan nan nan nan nan nan nan nan nan nan nan nan nan nan nan nan nan nan nan nan nan
41 39 38 36 34 30 nan nan nan nan nan nan nan nan nan nan nan nan nan nan nan nan nan nan nan nan nan nan nan nan nan nan nan nan nan nan nan nan nan nan nan nan nan
39 37 37 35 37 34 nan nan nan nan nan nan nan nan nan nan nan nan nan nan nan nan nan nan nan nan nan nan nan nan nan nan nan nan nan nan nan nan nan nan nan nan nan
36 37 35 35 38 39 nan nan nan nan nan nan nan nan nan nan nan nan nan nan nan nan nan nan nan nan nan nan nan nan nan nan nan nan nan nan nan nan nan nan nan nan nan
39 37 37 37 37 40 nan nan nan nan nan nan nan nan nan nan nan nan nan nan nan nan nan nan nan nan nan nan nan nan nan nan nan nan nan nan nan nan nan nan nan nan nan
37 39 39 38 36 37 nan nan nan nan nan nan nan nan nan nan nan nan nan nan nan nan nan nan nan nan nan nan nan nan nan nan nan nan nan nan nan nan nan nan nan nan nan
39 41 42 41 38 39 43 nan nan nan nan nan nan nan nan nan nan nan nan nan nan nan nan nan nan nan nan nan nan nan nan nan nan nan nan nan nan nan nan nan nan nan nan
42 44 42 42 39 40 42 nan nan nan nan nan nan nan nan nan nan nan nan nan nan nan nan nan nan nan nan nan nan nan nan nan nan nan nan nan nan nan nan nan nan nan nan
48 44 43 39 39 38 40 40 43 nan nan nan nan nan nan nan nan nan nan nan nan nan nan nan nan nan nan nan nan nan nan nan nan nan nan nan nan nan nan nan nan nan nan
72 59 43 40 39 40 42 45 48 nan nan nan nan nan nan nan nan nan nan nan nan nan nan nan nan nan nan nan nan nan nan nan nan nan nan nan nan nan nan nan nan nan nan
75 69 56 41 41 44 44 43 44 nan nan nan nan nan nan nan nan nan nan nan nan nan nan nan nan nan nan nan nan nan nan nan nan nan nan nan nan nan nan nan nan nan nan
80 74 62 48 41 44 43 43 43 41 41 nan nan nan nan nan nan nan nan nan nan nan nan nan nan nan nan nan nan nan nan nan nan nan nan nan nan nan nan nan nan nan nan
81 77 72 69 42 46 47 46 41 38 41 nan nan nan nan nan nan nan nan nan nan nan nan nan nan nan nan nan nan nan nan nan nan nan nan nan nan nan nan nan nan nan nan
Wind_Direction
262 254 281 271 270 263 261 258 253 250 247 244 243 239 236 234 240 230 237 240 219 204 224 226 226 213 nan nan nan nan nan nan nan nan nan 259 284 297 293 345 nan nan nan
258 267 273 266 272 269 263 255 252 246 243 243 238 238 234 235 247 241 248 243 234 220 232 226 222 nan nan nan nan nan nan nan nan nan nan nan nan 298 nan 345 nan nan 25
252 255 259 270 268 260 264 253 249 243 239 242 233 236 237 240 246 252 243 241 239 238 239 232 221 nan nan nan 212 nan nan nan nan nan nan nan nan nan nan 16 29 11 3
258 247 257 267 268 263 256 250 252 254 231 235 227 231 234 241 248 248 236 236 234 239 234 229 nan nan nan nan nan 240 nan nan nan nan nan nan nan nan nan nan nan 343 347
258 249 263 277 271 267 259 250 247 236 243 231 223 232 236 241 246 243 234 232 234 228 223 219 214 208 202 nan nan nan nan nan nan nan nan nan nan 354 nan nan nan 337 328
247 259 262 274 278 270 260 251 243 235 238 231 224 229 229 237 240 239 231 227 233 228 219 213 208 nan nan nan nan nan nan nan nan nan nan nan nan 254 288 312 333 329 306
253 254 267 272 276 271 263 254 244 232 231 230 228 228 230 232 235 236 227 221 238 228 219 214 nan nan nan nan nan nan nan nan nan nan nan nan nan 260 nan 278 314 310 nan
265 243 263 277 272 272 265 258 249 235 230 234 227 227 230 230 234 233 225 224 237 238 231 nan nan nan nan nan nan nan nan nan nan nan nan nan nan nan 276 280 306 301 nan
260 243 250 262 262 267 265 262 249 242 236 235 227 224 225 226 230 234 231 237 241 239 230 nan nan nan nan nan nan nan nan nan nan nan nan nan nan nan 278 286 293 303 nan
251 243 245 254 262 252 250 262 250 237 237 235 228 221 216 219 227 230 235 243 245 238 nan nan nan nan nan nan nan nan nan nan nan nan nan nan nan nan nan nan 281 304 nan
242 247 241 247 252 259 251 245 247 239 237 nan nan nan nan 209 nan nan nan nan nan nan nan nan nan nan nan nan nan nan nan nan nan nan nan nan nan nan nan nan nan nan nan
251 249 250 257 239 266 250 243 241 nan nan nan nan nan nan nan nan nan nan nan nan nan nan nan nan nan nan nan nan nan nan nan nan nan nan nan nan nan nan nan nan nan nan
251 243 245 252 255 254 257 235 nan nan nan nan nan nan nan nan nan nan nan nan nan nan nan nan nan nan nan nan nan nan nan nan nan nan nan nan nan nan nan nan nan nan nan
249 246 243 247 250 244 nan 241 nan nan nan nan nan nan nan nan nan nan nan nan nan nan nan nan nan nan nan nan nan nan nan nan nan nan nan nan nan nan nan nan nan nan nan
246 244 243 244 244 241 nan nan nan nan nan nan nan nan nan nan nan nan nan nan nan nan nan nan nan nan nan nan nan nan nan nan nan nan nan nan nan nan nan nan nan nan nan
245 246 244 242 239 242 nan nan nan nan nan nan nan nan nan nan nan nan nan nan nan nan nan nan nan nan nan nan nan nan nan nan nan nan nan nan nan nan nan nan nan nan nan
245 248 245 241 239 237 nan nan nan nan nan nan nan nan nan nan nan nan nan nan nan nan nan nan nan nan nan nan nan nan nan nan nan nan nan nan nan nan nan nan nan nan nan
242 247 244 235 239 234 nan nan nan nan nan nan nan nan nan nan nan nan nan nan nan nan nan nan nan nan nan nan nan nan nan nan nan nan nan nan nan nan nan nan nan nan nan
243 247 246 239 239 236 nan nan nan nan nan nan nan nan nan nan nan nan nan nan nan nan nan nan nan nan nan nan nan nan nan nan nan nan nan nan nan nan nan nan nan nan nan
239 241 245 237 237 234 227 nan nan nan nan nan nan nan nan nan nan nan nan nan nan nan nan nan nan nan nan nan nan nan nan nan nan nan nan nan nan nan nan nan nan nan nan
235 236 240 240 237 231 231 nan nan nan nan nan nan nan nan nan nan nan nan nan nan nan nan nan nan nan nan nan nan nan nan nan nan nan nan nan nan nan nan nan nan nan nan
225 236 240 240 240 235 230 230 231 nan nan nan nan nan nan nan nan nan nan nan nan nan nan nan nan nan nan nan nan nan nan nan nan nan nan nan nan nan nan nan nan nan nan
214 214 235 237 240 234 236 229 228 nan nan nan nan nan nan nan nan nan nan nan nan nan nan nan nan nan nan nan nan nan nan nan nan nan nan nan nan nan nan nan nan nan nan
211 211 210 231 235 233 238 235 239 nan nan nan nan nan nan nan nan nan nan nan nan nan nan nan nan nan nan nan nan nan nan nan nan nan nan nan nan nan nan nan nan nan nan
210 210 207 213 233 235 237 238 238 236 236 nan nan nan nan nan nan nan nan nan nan nan nan nan nan nan nan nan nan nan nan nan nan nan nan nan nan nan nan nan nan nan nan
210 209 209 208 233 235 235 239 239 242 242 nan nan nan nan nan nan nan nan nan nan nan nan nan nan nan nan nan nan nan nan nan nan nan nan nan nan nan nan nan nan nan nan